Location: Unspecified
(0.0000°N, 0.0000°E)
Time: 17:54:19
(UTC+00:00)

STARLINK 1029 - Pass Details

Date: 16 January 2020
Orbit: 382 x 384 km, 53.0° (Epoch: 18 January)

Event Time Altitude Azimuth Distance (km) Brightness Sun altitude
Rises 05:17:54 0° 193° (SSW) 2,255 6.9 -12.0°
Reaches altitude 10° 05:20:17 10° 175° (S) 1,399 6.0 -11.5°
Maximum altitude 05:22:42 21° 124° (SE) 935 5.9 -10.9°
Drops below altitude 10° 05:25:07 10° 73° (ENE) 1,392 6.5 -10.3°
Sets 05:27:29 0° 56° (NE) 2,241 7.3 -9.8°
